Temperature
23 22 22 22 21 21 21 20 20 20 20 19 19 19 19 19 18 18 17 17 16 16 16 16 16 15 16 16 16 16 16 16 16 16 17 18 18 18 18 18 18 18 18
22 22 22 22 22 22 21 21 20 20 20 19 19 19 19 18 18 17 17 16 16 16 16 15 15 15 15 15 15 15 15 16 16 16 17 18 19 19 18 18 18 18 18
23 23 22 22 22 22 21 21 20 20 20 20 19 19 19 18 18 17 17 16 16 16 15 15 15 15 15 15 15 15 15 15 16 16 16 18 19 20 20 19 18 18 18
24 23 23 23 22 22 21 20 20 20 20 20 19 19 19 19 18 17 17 16 15 15 15 15 15 15 15 14 14 14 14 14 15 15 16 16 17 18 19 19 18 17 17
23 23 22 22 22 21 20 20 20 20 20 20 19 19 18 18 18 17 16 16 15 15 14 14 14 14 14 14 14 14 14 14 14 14 15 15 15 15 16 18 18 18 17
22 21 21 21 21 20 20 19 19 20 20 20 19 19 19 18 18 17 16 16 15 14 14 14 14 14 14 14 14 14 14 14 13 14 14 15 15 16 16 17 17 17 17
19 18 19 19 19 19 19 19 19 20 19 19 19 19 18 18 17 16 16 15 15 15 14 14 14 14 14 14 14 14 14 14 14 14 14 14 15 15 16 16 17 17 16
15 15 15 15 16 16 17 17 18 18 18 18 18 18 18 17 17 16 16 15 15 15 14 14 14 14 14 13 13 13 13 13 14 14 14 14 14 14 15 15 15 15 15
14 14 14 14 13 14 14 14 15 16 16 17 17 18 17 17 16 16 16 15 15 14 14 14 14 14 13 13 14 13 13 13 13 14 14 14 14 14 14 14 15 14 15
14 13 13 13 13 13 12 12 13 13 14 14 15 16 16 16 16 16 15 15 15 15 14 14 14 13 13 13 13 13 13 13 13 14 14 14 14 14 14 14 14 14 14
13 13 13 12 12 12 12 12 12 12 13 13 13 14 14 14 15 15 15 15 15 15 14 14 13 13 13 13 13 13 13 13 13 13 13 13 14 14 14 14 14 14 14
13 13 12 12 12 11 11 11 11 11 11 11 12 12 12 13 13 14 14 14 14 14 14 13 13 13 13 13 13 13 13 13 13 13 13 13 13 13 14 14 14 14 14
13 12 12 12 11 11 10 10 10 10 10 10 11 11 11 11 12 12 13 13 13 14 13 13 13 13 12 12 12 12 12 12 13 13 13 13 13 13 13 13 13 13 13
11 11 10 10 10 10 9 9 9 9 9 9 9 10 10 10 10 11 12 12 13 13 13 13 12 12 12 12 12 12 12 12 12 12 12 12 12 12 13 12 13 13 12
10 10 10 10 9 9 9 9 9 9 9 9 9 9 9 9 9 10 10 11 12 12 12 12 12 12 12 12 12 12 12 12 12 12 12 12 12 12 12 12 12 12 12
11 11 10 10 10 10 9 9 9 9 8 8 8 8 8 8 9 9 10 10 11 11 12 12 12 12 12 12 12 12 11 11 11 12 12 12 12 12 12 12 12 11 11
11 11 11 11 10 10 10 9 9 9 9 8 8 8 8 8 8 8 9 9 10 11 11 12 12 12 12 12 12 12 11 11 11 11 11 11 11 11 11 11 11 11 11
11 10 10 10 10 10 10 10 9 9 9 9 9 9 8 9 9 9 9 9 9 10 10 11 11 11 12 12 12 12 11 11 11 11 11 11 11 11 11 11 11 11 11
10 10 9 9 9 9 9 9 9 9 9 9 9 9 9 9 9 9 9 9 9 9 10 10 11 11 11 11 12 12 11 11 11 11 11 11 11 11 11 11 11 11 11
9 9 9 9 9 8 8 8 8 8 8 8 8 8 8 8 8 8 8 8 8 8 9 9 10 10 10 11 11 11 11 11 11 11 11 11 11 11 11 11 11 11 11
9 8 8 8 8 7 7 7 7 7 7 7 7 7 7 7 7 8 8 8 8 8 8 9 9 9 10 10 11 11 11 11 11 11 11 11 11 11 11 11 11 11 11
8 8 8 7 7 7 6 6 7 7 7 7 7 7 7 7 8 8 8 8 8 8 8 8 8 9 9 9 10 11 11 11 11 12 11 11 11 11 11 11 11 11 11
8 7 7 6 6 6 6 5 6 6 6 6 6 6 6 6 7 7 7 8 8 8 9 8 8 8 9 9 10 10 10 11 11 11 11 11 11 11 11 11 11 10 10
7 7 6 5 5 5 5 5 5 5 5 5 5 5 5 6 6 7 7 8 9 9 9 8 8 8 8 9 9 10 10 10 10 11 11 10 10 10 10 10 10 10 10
7 6 5 5 4 4 4 4 4 4 4 4 5 5 5 6 6 7 7 8 8 9 8 8 8 7 8 8 9 9 9 10 10 10 10 10 9 9 9 9 9 9 9
6 5 4 4 4 4 4 4 4 4 4 4 4 4 5 5 6 6 7 7 8 8 8 7 7 7 7 8 8 9 9 10 10 10 10 10 10 10 10 10 9 9 9
Wind_Speed
9 9 8 8 8 7 7 6 6 6 4 3 3 3 4 4 4 4 3 4 5 5 6 8 8 9 10 11 13 13 14 13 12 12 14 15 17 17 15 15 15 16 16
10 10 9 8 8 8 7 7 7 6 5 4 3 3 4 5 5 5 4 5 5 6 7 7 9 10 10 12 13 13 13 13 12 12 13 14 15 14 16 15 15 16 14
11 11 11 10 9 8 7 6 6 6 6 5 5 4 5 6 6 6 5 4 5 7 7 8 10 10 12 12 12 12 15 14 14 13 13 12 13 12 11 13 13 13 12
10 10 10 10 9 7 6 6 7 7 7 7 7 7 7 7 7 6 5 5 6 7 7 8 9 10 11 11 12 12 13 14 14 14 14 16 16 13 12 10 11 12 12
7 6 6 6 5 4 5 6 7 8 8 8 8 8 9 7 6 6 6 7 7 6 7 8 9 9 10 11 11 12 13 12 14 14 14 14 14 16 15 14 11 10 10
2 1 1 2 3 5 6 8 8 9 9 9 9 9 9 8 8 8 8 7 7 6 7 7 8 10 10 10 11 12 13 13 14 14 14 14 12 13 14 15 14 11 8
11 12 11 10 9 9 9 10 9 9 8 9 9 9 9 9 9 9 8 8 8 7 6 8 9 10 10 11 12 12 13 13 14 14 13 14 15 14 13 13 13 11 7
16 16 15 14 13 13 13 11 10 9 7 7 7 7 8 8 8 8 8 8 8 8 8 9 10 11 12 12 11 12 12 12 12 14 14 13 14 13 13 13 12 10 8
17 16 16 16 16 16 16 15 13 10 8 7 6 7 8 9 9 8 9 9 8 8 9 10 11 11 11 12 12 11 12 12 12 13 13 13 13 12 12 12 12 11 8
16 16 15 16 16 16 16 16 15 14 13 11 9 8 9 9 9 10 10 10 10 10 10 11 11 11 11 11 11 11 11 11 11 10 12 12 12 11 11 11 10 10 8
15 15 14 15 15 15 15 15 15 15 15 15 14 13 11 11 10 10 11 11 11 11 11 11 11 11 11 11 11 11 11 11 11 9 10 11 11 9 9 9 9 9 8
14 15 15 14 14 15 15 15 15 15 15 15 15 14 14 13 12 12 13 12 12 12 12 11 11 11 11 11 11 11 10 9 9 8 7 7 6 6 6 5 6 6 8
17 17 16 15 15 15 15 14 14 14 15 15 15 15 15 15 15 15 14 14 14 14 13 12 12 11 10 10 10 9 8 7 6 5 5 5 3 3 2 3 5 6 8
17 16 16 15 14 14 14 13 14 13 14 15 15 15 15 16 17 17 16 15 14 15 15 14 13 11 10 10 9 7 6 5 3 3 3 3 1 3 5 6 8 9 11
16 15 14 13 13 12 11 11 12 11 11 12 12 12 13 14 15 16 16 16 15 16 15 15 13 12 10 9 7 6 5 3 1 2 4 5 7 8 7 8 9 10 10
19 18 18 17 17 16 15 15 15 14 13 13 13 12 12 12 13 14 16 16 16 15 15 15 14 13 10 5 2 6 5 3 2 3 5 7 8 12 13 13 10 8 8
22 23 23 22 21 21 20 19 18 17 16 16 16 15 14 14 13 13 14 14 14 14 15 15 15 14 10 10 8 6 5 4 3 4 5 6 8 10 11 12 12 11 9
26 25 24 24 24 24 23 22 22 21 19 19 18 17 17 16 15 14 13 12 12 12 12 14 15 14 12 14 12 8 7 6 5 5 7 8 9 9 10 11 10 9 9
26 26 26 27 26 25 24 24 23 22 21 21 20 19 18 18 17 16 15 12 11 11 11 11 13 14 13 16 15 12 9 8 7 7 7 8 10 9 9 12 12 11 10
26 26 27 27 26 25 24 24 24 24 23 22 21 20 19 18 18 17 16 14 11 11 11 10 10 12 13 16 17 14 10 10 9 7 7 7 10 9 6 11 12 13 11
28 27 27 25 24 24 24 25 24 24 23 22 21 20 19 19 19 17 16 15 13 12 11 9 8 8 10 14 18 16 10 11 10 10 9 8 11 9 4 6 10 12 13
28 28 25 24 23 23 24 24 24 23 22 21 21 20 19 18 17 16 15 14 13 12 11 9 7 4 5 8 15 16 12 7 10 9 9 10 12 10 6 6 12 13 12
27 25 25 25 23 21 21 24 24 23 22 21 20 19 19 17 17 16 15 14 13 12 10 8 6 5 5 6 12 14 10 5 6 7 13 15 16 14 10 13 13 11 9
26 25 25 25 24 23 23 23 23 22 21 21 20 17 17 17 17 14 14 14 13 12 9 8 6 6 6 6 9 11 10 9 10 12 14 14 11 10 13 12 9 8 7
25 24 23 23 25 24 23 23 22 21 21 20 18 16 16 16 15 14 13 14 13 9 7 7 6 6 8 8 11 13 14 14 13 15 13 12 12 12 11 10 8 8 8
26 25 25 25 25 25 24 22 21 21 20 18 16 14 12 12 13 13 13 13 12 7 7 4 5 4 4 8 10 12 12 15 19 16 14 13 12 12 12 11 10 9 9
Wind_Direction
175 177 174 170 166 163 169 176 176 170 186 198 231 242 257 265 265 265 271 278 292 301 295 295 297 286 284 285 285 280 273 266 264 264 264 260 254 248 247 245 246 245 244
187 182 174 169 164 158 162 167 174 173 191 192 229 259 288 279 283 278 266 274 290 298 294 298 293 289 288 280 276 274 274 273 262 258 266 265 258 243 239 239 239 243 244
202 185 177 174 172 168 175 184 187 194 210 214 229 234 244 255 254 259 258 272 295 298 301 296 293 295 287 283 281 278 270 269 267 254 254 262 262 262 246 230 236 241 242
209 187 181 183 184 183 192 205 213 219 222 227 241 254 270 283 294 290 288 289 284 291 293 291 290 289 288 286 279 273 272 268 266 260 249 253 269 273 265 239 227 228 235
202 185 193 195 202 216 230 233 235 235 232 234 240 249 259 273 279 280 275 279 282 280 284 290 293 290 286 287 285 281 272 268 265 264 260 252 251 250 256 259 250 227 226
79 66 17 322 301 292 279 267 255 249 241 235 240 244 258 266 274 274 282 278 282 280 280 289 290 288 290 289 283 278 274 268 265 263 263 258 251 243 241 245 248 245 235
34 28 19 5 350 336 320 304 288 272 257 244 242 243 248 253 255 264 271 278 289 289 293 295 294 293 293 289 286 281 277 273 267 260 257 257 254 254 252 250 250 249 235
43 39 33 27 17 9 358 345 327 307 291 269 259 254 250 252 256 253 272 279 286 293 302 293 291 293 293 293 291 288 280 275 270 264 259 257 255 252 249 246 245 242 227
42 38 34 30 26 22 17 11 4 355 343 322 297 271 258 257 260 259 255 266 271 281 283 287 290 292 294 294 295 290 288 282 274 268 260 255 254 251 246 241 236 231 220
32 30 26 23 20 18 17 15 14 11 4 352 334 311 288 271 262 259 261 264 268 270 275 280 286 290 292 292 294 294 293 291 283 275 270 263 255 249 244 240 234 226 223
17 14 12 9 7 6 7 6 6 5 3 359 350 337 321 302 284 271 265 261 260 260 262 270 278 284 289 293 294 296 298 296 293 286 277 270 262 250 241 236 229 217 204
356 354 354 354 355 355 354 354 352 353 351 350 347 345 337 327 311 294 282 271 262 256 254 259 266 274 282 290 293 296 302 301 297 298 296 288 272 246 238 224 212 196 175
340 340 342 342 343 343 342 341 339 340 337 337 336 337 337 335 328 316 302 286 270 259 253 251 256 264 275 283 287 291 296 300 306 318 321 309 277 226 181 157 145 139 134
327 328 328 328 329 328 328 327 327 327 326 326 324 324 326 327 325 321 315 301 283 266 253 247 247 253 262 270 277 281 283 289 313 347 4 12 49 135 123 116 116 119 120
311 309 306 304 302 302 302 301 300 300 302 303 303 303 308 312 314 316 316 309 294 274 259 249 244 244 248 253 261 265 262 259 248 58 55 57 77 94 103 113 116 121 124
306 305 302 300 300 300 299 296 292 289 285 283 282 281 284 290 296 302 307 306 299 285 267 250 243 238 239 159 202 265 234 224 173 112 94 96 95 96 91 89 90 106 136
311 310 307 305 304 302 300 295 292 290 287 283 281 277 272 270 274 281 289 295 298 293 276 255 242 234 215 164 190 234 230 192 150 122 115 107 108 116 112 100 91 77 70
312 309 306 304 301 300 298 296 293 291 288 285 283 282 276 270 267 268 274 282 293 296 288 268 249 234 206 176 188 206 208 177 148 128 122 120 126 125 129 127 116 99 72
308 306 304 302 301 299 296 294 292 289 287 285 284 283 280 275 271 269 270 275 284 292 293 284 265 241 208 180 185 202 191 170 155 141 132 134 131 127 139 134 127 115 94
307 304 303 301 299 298 297 294 291 288 284 283 282 281 280 276 272 270 270 271 276 282 288 286 277 256 225 185 184 202 195 173 162 148 138 121 130 138 156 149 141 132 126
306 305 304 302 300 299 296 291 288 285 285 284 281 277 276 274 268 264 262 262 265 276 282 280 274 266 250 190 184 199 204 178 176 166 161 135 128 137 135 167 150 140 138
307 307 306 303 302 299 296 291 287 286 285 282 278 274 271 270 267 258 254 254 259 265 270 267 262 248 258 210 191 196 221 208 181 172 153 131 133 131 130 129 125 136 148
307 307 306 303 301 298 295 291 289 287 285 280 275 272 269 264 261 260 253 249 246 253 263 261 251 231 222 198 181 188 203 209 179 139 111 126 133 129 116 122 136 157 158
308 307 305 302 299 297 293 288 288 286 282 277 273 269 265 260 253 249 247 245 245 245 252 255 246 224 209 186 177 181 178 153 135 123 121 129 137 125 118 141 161 171 159
307 306 303 300 298 296 292 289 287 284 280 275 270 265 260 256 254 248 243 244 244 247 255 265 249 217 209 185 182 181 178 176 155 145 146 148 148 147 152 158 158 154 154
307 306 303 301 299 297 293 289 286 283 278 273 265 257 252 250 247 244 236 221 232 186 191 232 260 230 190 156 174 186 169 152 150 159 159 160 160 159 159 159 159 162 161
Height
1511 1513 1514 1515 1517 1518 1520 1521 1522 1523 1523 1524 1525 1524 1524 1523 1522 1521 1519 1518 1517 1515 1513 1513 1511 1509 1508 1506 1505 1504 1503 1502 1501 1500 1499 1498 1497 1497 1497 1497 1498 1499 1499
1509 1510 1511 1514 1516 1517 1519 1520 1521 1522 1522 1523 1522 1522 1521 1521 1520 1519 1517 1515 1513 1511 1510 1507 1506 1504 1502 1500 1498 1497 1497 1496 1496 1495 1493 1491 1491 1489 1489 1489 1490 1491 1492
1507 1508 1511 1513 1515 1517 1519 1520 1520 1520 1521 1521 1521 1520 1519 1518 1517 1516 1514 1512 1510 1508 1505 1503 1501 1498 1496 1495 1493 1491 1490 1489 1489 1489 1489 1486 1482 1482 1482 1482 1483 1484 1485
1506 1508 1510 1513 1515 1516 1517 1518 1518 1518 1518 1518 1519 1519 1518 1517 1515 1513 1512 1509 1506 1503 1501 1498 1496 1493 1491 1489 1486 1485 1483 1482 1481 1481 1481 1480 1479 1478 1477 1477 1477 1477 1478
1505 1508 1510 1512 1514 1516 1516 1516 1515 1515 1515 1516 1516 1515 1515 1513 1512 1510 1507 1504 1503 1499 1497 1494 1492 1489 1486 1484 1481 1478 1476 1475 1474 1474 1474 1473 1473 1473 1473 1472 1472 1472 1472
1506 1508 1509 1512 1514 1514 1515 1514 1513 1513 1512 1512 1512 1511 1511 1509 1508 1506 1504 1502 1500 1497 1494 1491 1488 1485 1483 1479 1476 1473 1471 1469 1467 1466 1466 1466 1466 1466 1466 1466 1466 1467 1467
1507 1507 1509 1510 1511 1511 1511 1511 1509 1508 1508 1508 1507 1507 1506 1505 1504 1502 1501 1499 1497 1495 1491 1488 1484 1482 1479 1476 1472 1469 1466 1463 1461 1459 1458 1458 1459 1459 1460 1460 1460 1461 1462
1512 1511 1511 1511 1510 1508 1507 1505 1504 1503 1502 1502 1502 1502 1501 1501 1500 1498 1497 1495 1493 1491 1487 1484 1481 1478 1475 1472 1469 1465 1462 1459 1456 1453 1452 1451 1451 1452 1452 1453 1455 1456 1457
1517 1516 1515 1513 1511 1508 1505 1503 1501 1499 1498 1497 1496 1496 1496 1495 1494 1493 1491 1490 1488 1486 1483 1480 1477 1474 1471 1468 1465 1461 1457 1454 1451 1448 1446 1445 1444 1444 1445 1446 1448 1451 1452
1520 1519 1517 1515 1512 1510 1506 1503 1500 1497 1495 1493 1492 1492 1491 1489 1488 1487 1486 1484 1483 1481 1479 1476 1474 1471 1468 1465 1461 1458 1454 1450 1447 1444 1441 1439 1438 1438 1439 1440 1442 1445 1448
1523 1520 1518 1515 1513 1510 1507 1503 1499 1496 1493 1490 1488 1486 1485 1484 1482 1481 1480 1479 1477 1476 1474 1472 1470 1467 1465 1462 1458 1454 1450 1446 1443 1439 1437 1434 1433 1433 1434 1435 1437 1439 1443
1523 1521 1518 1515 1511 1508 1504 1501 1498 1495 1492 1489 1486 1483 1480 1478 1476 1475 1474 1473 1471 1470 1469 1467 1465 1463 1461 1458 1454 1451 1447 1443 1439 1436 1434 1431 1429 1429 1430 1431 1433 1436 1439
1522 1518 1515 1512 1508 1505 1501 1497 1494 1491 1488 1485 1482 1479 1476 1473 1470 1468 1467 1466 1465 1463 1463 1461 1460 1458 1457 1454 1451 1447 1444 1440 1437 1434 1431 1429 1427 1426 1427 1429 1431 1434 1437
1518 1514 1510 1507 1503 1499 1496 1492 1488 1485 1481 1478 1476 1473 1470 1468 1465 1463 1460 1459 1458 1457 1456 1455 1454 1453 1452 1450 1448 1445 1441 1438 1436 1433 1430 1428 1427 1426 1427 1428 1430 1433 1436
1513 1509 1504 1500 1496 1492 1489 1485 1482 1478 1474 1470 1467 1464 1462 1459 1458 1456 1454 1452 1451 1449 1448 1448 1448 1447 1446 1446 1444 1442 1439 1437 1435 1433 1431 1429 1427 1427 1428 1430 1432 1435 1438
1507 1503 1499 1495 1491 1487 1483 1479 1476 1472 1468 1464 1460 1456 1454 1452 1450 1449 1447 1446 1444 1442 1441 1440 1441 1441 1442 1441 1440 1438 1438 1436 1435 1433 1432 1431 1430 1430 1431 1433 1436 1440 1443
1502 1497 1493 1489 1485 1481 1477 1473 1469 1465 1462 1458 1455 1451 1449 1446 1444 1443 1442 1440 1438 1435 1433 1432 1433 1434 1435 1435 1436 1435 1435 1435 1435 1434 1433 1434 1434 1435 1436 1438 1441 1444 1448
1496 1490 1486 1481 1477 1472 1468 1464 1460 1457 1454 1451 1447 1445 1443 1441 1439 1438 1436 1434 1431 1428 1426 1424 1425 1426 1428 1430 1431 1432 1433 1435 1435 1434 1434 1435 1436 1439 1440 1442 1445 1448 1451
1488 1483 1478 1472 1467 1463 1459 1454 1450 1447 1444 1441 1439 1437 1435 1433 1432 1431 1429 1427 1425 1422 1420 1418 1417 1419 1421 1424 1427 1429 1432 1433 1434 1435 1436 1437 1438 1441 1443 1445 1447 1450 1454
1480 1474 1468 1463 1458 1453 1449 1444 1440 1437 1434 1431 1429 1427 1426 1424 1423 1422 1421 1420 1419 1417 1414 1411 1410 1411 1414 1418 1422 1425 1429 1431 1433 1434 1436 1438 1440 1442 1445 1448 1450 1452 1455
1471 1465 1459 1453 1448 1444 1439 1434 1430 1426 1424 1421 1419 1417 1416 1415 1413 1413 1413 1413 1412 1411 1408 1406 1404 1405 1407 1412 1417 1421 1426 1429 1431 1434 1436 1437 1440 1443 1446 1449 1452 1454 1457
1461 1455 1448 1442 1438 1434 1429 1423 1419 1416 1413 1410 1408 1406 1405 1405 1404 1404 1404 1404 1404 1404 1402 1400 1399 1398 1400 1404 1411 1417 1423 1427 1430 1433 1435 1436 1439 1443 1446 1449 1452 1455 1458
1451 1445 1439 1432 1427 1423 1418 1412 1407 1405 1402 1399 1397 1396 1395 1394 1394 1395 1396 1397 1397 1397 1396 1395 1394 1393 1395 1398 1405 1413 1419 1424 1428 1431 1433 1435 1439 1442 1446 1449 1452 1456 1460
1441 1435 1428 1421 1415 1410 1406 1400 1396 1393 1390 1387 1385 1385 1384 1384 1385 1386 1387 1389 1390 1390 1390 1390 1389 1388 1390 1392 1399 1407 1415 1421 1425 1428 1431 1435 1439 1442 1445 1449 1453 1457 1460
1430 1424 1417 1409 1402 1397 1392 1388 1384 1380 1377 1375 1374 1374 1374 1374 1375 1377 1378 1380 1383 1384 1385 1385 1385 1384 1386 1388 1396 1403 1411 1418 1423 1426 1431 1435 1439 1442 1446 1450 1453 1456 1458
1420 1412 1405 1398 1391 1385 1379 1375 1371 1368 1365 1362 1362 1363 1364 1365 1367 1368 1370 1372 1376 1378 1379 1380 1380 1381 1382 1386 1392 1401 1409 1416 1421 1426 1431 1434 1438 1442 1445 1449 1452 1454 1457